Overview Statistics Trail Chart Weather Telemetry Raw packets
 

This is the latest recevied weather packets stored in our database for station/object KC2GYU. If no packets are shown the sender has not sent any weather packets the latest 10 day(s).

<< 2 3 4 5 6 7 8 >>
Time Temp. Humidity Pressure Rain* Wind** Luminosity Snow
1778111416 17.78° C 92% 1009.4 hPa 0 mm - 3 W/m² -
1778111114 17.78° C 91% 1009.3 hPa 0 mm - 6 W/m² -
1778110810 18.33° C 91% 1009.3 hPa 0 mm - 9 W/m² -
1778110506 18.33° C 91% 1009.3 hPa 0 mm - 13 W/m² -
1778110197 18.89° C 90% 1009.2 hPa 0 mm - 19 W/m² -
1778109894 18.89° C 89% 1009.2 hPa 0 mm - 24 W/m² -
1778109590 18.89° C 89% 1009.2 hPa 0 mm - 29 W/m² -
1778109287 18.89° C 88% 1009.6 hPa 0 mm - 34 W/m² -
1778108985 19.44° C 88% 1009.5 hPa 0 mm - 40 W/m² -
1778108680 19.44° C 88% 1009.5 hPa 0 mm - 43 W/m² -
1778108377 19.44° C 88% 1009.5 hPa 0 mm - 35 W/m² -
1778108074 19.44° C 88% 1009.3 hPa 0 mm - 39 W/m² -
1778107771 19.44° C 88% 1009.4 hPa 0 mm - 46 W/m² -
1778107468 19.44° C 88% 1009 hPa 0 mm - 53 W/m² -
1778107165 19.44° C 88% 1009.2 hPa 0 mm - 67 W/m² -
1778106860 19.44° C 87% 1009.4 hPa 0 mm - 83 W/m² -
1778106557 19.44° C 88% 1009 hPa 0 mm - 87 W/m² -
1778106254 19.44° C 88% 1009.2 hPa 0 mm - 80 W/m² -
1778105951 19.44° C 88% 1009.2 hPa 0 mm - 79 W/m² -
1778105648 19.44° C 88% 1009.2 hPa 0 mm - 58 W/m² -
1778105346 19.44° C 88% 1009 hPa 0 mm - 49 W/m² -
1778105041 19.44° C 88% 1009 hPa 0 mm - 69 W/m² -
1778104738 19.44° C 88% 1009.1 hPa 0 mm - 74 W/m² -
1778104434 19.44° C 88% 1009.1 hPa 0 mm - 62 W/m² -
1778104130 19.44° C 88% 1009.3 hPa 0 mm - 60 W/m² -

* Rain latest hour (hover to see other rain measurements)
** Current wind speed in m/s (hover to see current wind gust speed)